Temp
15 15 15 15 16 16 15 15 16 15 16 16 17 18 18 18 20 21 19 23 22 23 23 24 24 24 23 22 22 19 19 17 20 22 22 25 25 27 27 28 22 20 22 22 20
15 15 14 15 15 16 15 15 15 15 16 16 16 17 18 18 19 18 23 23 23 23 23 22 22 22 20 22 21 19 17 20 21 23 23 24 24 25 26 27 23 21 19 18 18
15 15 15 14 15 16 15 15 15 15 15 15 16 17 17 18 17 21 23 23 23 23 23 22 22 22 22 22 22 21 20 21 22 23 22 23 22 24 25 26 26 25 20 19 19
15 15 15 14 15 15 15 15 15 14 14 15 15 16 17 18 19 23 23 22 22 22 23 22 21 22 21 21 22 21 21 22 22 23 23 24 24 24 25 25 26 24 20 19 19
15 15 15 14 14 15 15 14 15 14 14 14 15 15 16 15 16 22 22 22 22 22 22 22 22 21 21 20 20 21 21 22 22 21 21 22 22 23 24 24 24 21 19 18 18
15 15 15 15 14 15 15 14 13 14 13 14 14 15 14 14 20 21 21 21 22 22 22 22 22 21 20 20 21 21 20 20 20 21 21 22 22 24 23 24 25 20 19 19 19
15 15 15 15 14 14 14 13 13 13 13 13 14 14 12 15 21 20 20 19 20 21 20 22 22 21 21 20 21 22 20 19 20 21 22 22 22 22 23 23 23 22 21 19 19
15 14 14 14 14 14 13 12 13 13 13 13 13 12 12 18 19 19 19 19 20 21 21 22 22 20 20 20 19 20 20 18 22 22 23 23 21 23 23 23 22 23 22 21 19
14 14 14 14 14 13 13 12 13 12 13 12 12 12 13 18 18 21 21 19 21 22 22 23 22 20 20 18 17 17 17 18 19 21 22 23 22 22 22 22 22 21 20 21 19
14 14 14 14 14 13 12 12 12 12 12 11 12 13 15 18 21 21 22 21 22 21 21 21 18 18 15 16 16 17 17 18 18 21 20 19 19 20 21 21 21 21 21 20 21
14 14 14 14 14 13 12 12 12 12 10 13 12 14 18 19 20 21 22 22 21 20 18 19 17 17 16 16 18 19 18 17 19 20 19 20 19 19 20 20 21 21 20 19 19
14 14 14 14 13 12 12 11 15 13 12 13 14 14 17 17 16 18 20 20 19 17 18 17 16 19 17 18 17 18 18 18 19 19 20 19 18 19 20 21 22 20 17 15 15
13 14 13 13 12 11 11 11 13 14 12 15 15 15 16 16 16 17 18 18 18 17 16 17 18 19 18 17 17 17 17 18 17 19 19 19 20 20 21 22 18 15 14 14 14
12 13 13 11 10 9 9 11 12 14 13 15 15 16 17 17 16 18 20 19 17 18 17 16 18 18 18 18 17 17 18 18 18 18 17 19 16 21 21 17 15 14 12 11 11
12 12 11 11 11 9 10 11 13 13 14 16 16 18 17 16 18 18 19 18 18 18 17 17 18 17 17 18 18 18 18 17 18 17 16 17 16 16 18 16 13 11 11 9 10
12 12 11 10 11 11 12 11 12 11 12 15 17 16 15 16 18 19 17 18 18 17 17 17 19 18 17 19 18 18 18 16 14 15 15 16 17 16 15 15 13 12 11 10 9
12 11 11 10 9 11 11 11 11 12 14 15 16 18 16 16 16 18 17 17 16 15 15 17 17 18 19 18 18 18 16 15 15 14 16 16 16 17 12 12 12 12 11 10 10
12 11 10 10 10 10 12 11 12 14 14 15 17 17 17 17 17 17 16 16 16 16 14 15 15 16 17 18 17 16 17 14 15 14 14 14 15 14 12 12 11 11 11 11 10
11 9 10 9 9 10 11 11 12 14 15 16 17 15 16 18 18 18 16 15 17 16 15 14 14 15 15 16 17 16 15 16 13 12 12 13 13 13 11 11 11 11 11 11 10
10 10 8 8 8 10 11 11 11 13 14 15 15 14 13 16 16 17 16 16 14 15 14 14 13 14 15 16 15 16 15 14 13 14 13 13 13 13 11 12 11 11 11 10 10
9 9 7 8 9 10 10 9 10 10 13 13 14 14 13 14 15 15 16 14 14 12 13 13 13 13 14 14 13 13 12 11 12 11 10 11 13 13 11 11 11 10 11 10 10
7 8 6 8 9 9 8 9 10 10 10 10 11 13 11 13 12 14 13 13 14 12 12 12 11 11 13 13 14 13 12 11 8 8 7 7 11 10 9 10 10 10 10 10 11
8 4 5 8 9 8 8 8 9 9 9 9 10 11 13 13 11 13 12 12 12 12 11 11 9 10 11 12 12 11 11 11 9 8 7 6 11 11 11 10 10 10 10 11 10
4 5 3 4 4 9 8 8 8 9 8 9 9 11 11 11 11 11 11 11 11 11 12 11 10 11 12 11 10 10 10 10 9 5 8 8 9 10 10 10 10 10 10 10 11
4 5 5 7 5 8 9 8 8 8 8 8 8 9 9 8 9 9 10 10 11 11 10 10 10 9 10 9 9 9 9 9 8 9 8 9 8 10 10 10 10 10 10 10 11
4 5 5 9 7 8 8 7 9 7 8 8 8 9 9 8 9 7 8 9 9 9 9 8 8 8 8 9 8 8 8 8 8 9 8 8 8 10 10 10 9 10 10 10 11
4 7 8 7 7 7 7 7 7 8 9 9 10 9 8 9 9 8 8 7 8 8 8 7 7 7 7 7 7 5 8 8 7 8 8 7 9 9 9 9 9 10 10 10 10
Height
798 798 799 799 799 802 801 800 798 799 797 795 792 788 784 780 773 767 766 763 762 762 762 761 760 761 761 763 764 768 792 802 789 783 772 753 756 740 734 736 740 741 739 736 738
793 794 796 795 797 799 798 799 797 797 795 794 792 787 784 780 773 765 763 761 761 762 761 761 763 762 766 764 765 776 795 785 771 764 764 754 754 748 746 742 745 743 742 740 741
787 790 791 793 794 795 796 796 797 795 794 792 790 786 783 780 776 764 762 762 763 761 760 760 762 763 767 765 766 770 781 769 761 757 757 756 753 744 745 748 739 740 740 745 746
782 784 787 789 790 792 793 793 793 795 793 791 788 785 783 780 790 762 762 761 760 761 759 759 762 767 771 773 765 773 763 762 758 751 755 755 747 747 743 743 733 730 732 738 743
775 778 781 784 786 788 790 791 790 791 793 790 787 786 782 784 773 763 761 760 758 760 760 758 764 767 773 771 768 769 761 756 753 754 752 749 753 750 743 734 731 731 735 735 735
768 771 775 778 782 784 786 788 790 788 789 789 787 785 786 787 760 760 760 759 759 759 759 759 760 763 769 769 769 760 759 757 753 751 750 749 744 742 740 730 730 733 733 732 732
762 765 768 773 776 779 783 785 787 788 786 787 786 784 784 770 757 757 756 755 756 757 757 757 757 760 765 769 759 758 764 757 750 743 744 741 748 747 732 728 729 729 728 727 725
754 759 762 767 771 775 779 782 784 786 784 785 785 783 776 756 753 749 750 748 749 751 753 753 756 758 762 761 764 767 766 775 744 740 739 742 765 738 729 731 730 722 723 722 721
747 752 757 761 766 772 776 780 781 782 782 783 783 784 768 753 749 743 745 746 745 747 748 750 753 760 760 774 784 780 784 773 759 739 741 743 754 737 729 730 729 725 722 721 721
738 745 750 756 762 768 774 776 778 778 779 781 782 787 761 750 744 742 742 744 745 744 748 751 759 767 776 779 791 784 783 771 763 748 749 756 757 744 733 731 729 725 720 718 715
730 735 742 749 756 764 771 775 778 777 774 764 763 759 748 744 743 742 743 744 744 749 760 755 770 768 769 767 762 766 772 774 758 746 755 751 754 749 737 732 728 723 723 721 720
721 728 735 744 751 758 765 766 764 766 765 758 755 755 746 746 750 744 744 749 751 760 756 763 766 750 758 761 764 767 768 766 754 747 749 750 752 742 735 730 726 727 732 733 728
710 719 728 738 746 753 757 762 764 765 766 748 744 741 740 742 738 734 741 741 750 757 759 759 752 744 752 758 764 763 765 762 764 752 748 749 744 736 727 725 733 740 740 736 735
697 709 720 731 744 745 753 759 762 769 767 739 736 721 725 730 729 719 722 734 743 746 754 753 743 745 749 752 756 761 750 753 755 760 771 749 769 736 728 742 745 748 747 745 741
686 697 708 718 728 737 747 755 760 771 768 727 721 713 716 724 715 708 712 726 729 737 744 741 742 747 746 740 744 746 741 749 751 759 764 759 770 745 733 743 754 757 753 752 749
677 684 696 711 718 728 740 754 764 777 758 724 712 716 722 718 712 707 713 717 722 736 734 734 731 735 736 732 736 736 742 754 762 767 771 758 758 744 749 747 752 754 755 754 749
668 674 680 695 703 719 733 748 765 749 724 715 712 706 712 716 716 710 717 722 729 745 741 734 733 730 728 737 735 738 752 771 772 778 759 749 752 735 753 754 752 753 753 752 748
657 666 670 674 690 705 721 737 730 700 709 705 703 707 711 707 712 712 719 722 721 723 738 740 742 731 722 724 733 742 743 765 760 765 761 754 752 741 749 752 752 751 750 747 745
653 659 665 666 677 689 706 711 692 695 698 702 704 716 713 704 707 709 717 719 712 716 731 739 738 728 725 723 726 738 746 740 760 766 770 759 754 754 754 754 753 752 749 749 747
644 656 657 664 667 677 688 690 693 693 696 698 706 712 715 705 711 708 711 709 716 714 716 728 743 737 731 726 728 729 736 749 757 756 761 754 752 744 754 752 752 751 750 749 746
637 644 652 661 667 661 672 690 694 700 696 698 697 704 705 705 709 708 708 715 711 719 717 725 733 745 737 735 738 741 748 755 756 770 777 770 743 734 749 747 749 748 744 744 739
623 636 646 652 659 656 668 684 688 689 701 701 704 699 706 703 714 714 713 713 711 713 720 726 737 747 742 739 737 741 746 757 781 788 794 796 741 741 752 751 750 750 746 743 739
613 642 642 646 644 659 660 675 676 684 697 701 704 702 697 697 716 704 712 713 714 719 724 726 748 755 755 748 744 749 751 754 765 778 787 800 738 734 740 744 747 745 741 737 734
615 631 647 650 648 647 659 670 672 677 690 698 702 700 700 706 711 714 717 722 719 721 720 723 738 734 731 738 747 754 753 755 764 797 776 762 761 729 742 746 741 740 738 733 729
603 614 614 634 646 641 649 661 667 668 684 691 701 696 702 713 718 720 722 726 726 726 730 729 737 744 746 751 753 756 756 757 760 762 769 750 763 746 736 736 737 733 732 729 721
591 599 617 614 628 639 652 658 655 670 668 682 687 695 700 707 707 723 723 723 727 731 736 738 748 750 754 753 756 759 757 756 756 754 755 755 748 744 738 734 731 727 725 721 715
575 584 589 615 626 638 650 652 659 657 672 674 677 690 701 705 710 717 721 729 730 734 741 745 750 755 761 761 766 774 747 748 752 748 750 755 741 737 740 736 728 723 719 717 711
Wind_Speed
20 18 17 15 13 12 10 10 10 13 15 19 21 24 27 32 33 28 5 2 3 4 6 8 2 8 1 1 3 4 2 4 4 4 6 8 5 9 3 2 4 5 3 3 25
23 21 19 17 17 14 11 11 10 13 15 18 21 24 27 30 30 14 4 1 2 4 4 6 5 7 4 3 2 4 4 6 7 5 6 8 4 9 6 3 2 2 5 15 23
25 24 22 19 20 15 12 10 12 13 15 17 20 23 26 24 7 4 4 6 7 6 8 6 3 1 1 0 2 3 6 6 6 8 6 5 9 6 6 3 6 6 8 12 15
29 27 25 22 22 17 13 12 11 13 14 16 19 22 24 7 6 1 8 14 12 10 2 2 4 3 0 3 2 3 7 5 6 6 4 3 5 7 3 7 5 7 14 17 17
32 30 27 25 24 21 16 14 12 11 15 16 17 21 11 4 10 27 12 13 6 8 4 2 2 1 1 3 5 5 6 5 6 10 7 6 7 8 7 11 4 6 9 15 15
35 33 30 28 25 23 19 15 15 10 13 14 16 17 3 6 9 10 13 18 9 4 4 2 3 3 4 5 3 3 6 8 7 9 6 7 7 2 6 8 6 9 13 14 16
37 35 32 30 27 25 21 17 15 13 12 13 15 12 2 17 23 29 30 30 20 17 4 14 5 5 0 5 2 4 8 10 5 6 6 7 9 5 9 8 10 11 13 14 16
39 38 35 32 29 26 23 18 16 14 12 13 13 5 8 17 22 27 27 25 18 17 19 17 6 4 5 4 7 5 3 5 3 4 5 5 8 9 8 5 12 12 8 13 16
41 39 36 33 30 27 23 18 18 15 13 13 6 2 10 11 11 12 12 9 8 9 14 14 6 4 3 4 4 3 5 6 6 5 2 2 5 9 8 6 9 9 9 6 10
42 40 37 34 31 27 21 19 16 15 4 2 2 2 9 6 5 6 6 8 3 3 3 3 3 3 2 4 5 5 5 5 8 1 4 6 10 10 9 6 8 9 9 9 5
44 40 38 35 31 26 22 9 3 4 6 11 10 5 5 2 8 1 3 3 2 3 6 3 4 11 12 8 6 3 5 9 13 11 3 15 7 9 10 7 9 10 7 9 9
47 42 38 35 31 27 24 5 4 1 7 15 11 12 26 14 5 11 8 3 5 8 4 1 11 13 9 7 8 8 12 15 12 11 3 7 9 9 9 7 4 8 11 12 13
49 45 38 35 31 28 22 9 5 3 5 8 11 12 14 13 16 17 8 6 6 6 8 11 7 11 11 7 8 12 14 13 9 6 5 5 9 8 3 3 12 12 8 11 10
50 44 40 34 26 26 9 15 14 5 5 5 7 8 13 5 10 23 30 13 8 16 5 9 11 12 8 9 8 14 8 12 8 3 5 1 5 4 5 7 12 11 11 10 11
52 44 45 45 18 15 15 23 13 5 6 2 6 7 7 13 3 5 22 13 24 10 8 8 5 9 15 18 10 10 11 10 6 4 3 2 2 6 4 4 6 8 9 9 9
53 51 51 41 28 26 29 29 14 5 12 4 4 7 6 13 3 2 4 5 8 10 11 10 3 5 8 7 8 3 4 5 4 3 6 8 8 5 1 2 2 1 4 5 6
56 56 58 42 17 42 43 14 4 10 3 6 6 8 9 7 5 4 6 13 9 6 14 9 15 5 5 5 1 4 6 1 2 2 7 4 5 1 4 3 4 2 2 4 4
57 59 60 44 45 57 37 8 13 17 17 1 3 4 10 6 5 6 6 8 7 4 3 9 4 4 5 15 9 7 9 6 7 5 3 4 6 4 6 5 4 2 3 3 4
48 53 41 34 63 54 14 17 20 18 12 11 7 2 4 7 6 12 8 6 9 7 7 5 3 3 6 3 4 5 4 2 6 2 1 4 1 4 5 5 4 5 2 4 6
38 26 12 49 60 36 15 18 9 6 7 8 14 11 11 11 9 11 9 1 7 5 5 7 3 2 3 2 7 3 5 4 2 4 6 4 5 5 8 5 5 4 5 6 7
19 8 17 51 43 16 13 10 8 5 7 11 15 14 12 10 8 6 5 1 3 3 5 5 4 3 2 1 6 2 2 6 4 3 4 2 6 2 8 2 6 8 8 9 11
7 6 29 41 11 6 10 9 6 12 4 2 2 11 13 16 14 17 10 2 1 6 7 2 4 4 1 3 4 1 3 4 5 5 2 2 10 8 8 3 3 9 10 9 12
10 3 9 21 10 9 9 9 7 11 9 9 11 11 6 13 7 12 2 5 2 3 7 6 1 4 2 3 2 3 3 4 5 3 5 5 12 2 11 15 12 15 15 14 12
5 4 2 2 2 12 9 7 9 11 10 7 6 6 7 8 1 10 10 4 2 2 8 5 3 3 6 3 4 4 5 5 4 3 3 11 12 27 16 16 18 16 15 15 15
3 4 5 10 7 15 12 8 15 9 7 11 3 8 11 6 5 5 6 5 4 4 4 3 4 3 4 4 2 3 4 6 7 7 7 17 12 20 23 19 17 18 19 18 20
6 6 4 14 17 14 7 12 21 7 9 11 10 14 7 5 4 7 8 2 3 3 3 3 2 3 3 3 5 9 7 10 11 12 12 16 24 15 20 18 18 19 19 20 19
4 7 6 12 14 14 6 8 16 12 4 12 17 17 10 6 7 6 6 5 5 5 3 4 5 3 2 4 5 9 10 13 6 8 8 10 15 13 12 15 18 17 17 15 19
Wind_Direction
242 246 248 253 259 270 283 299 320 327 333 339 341 340 340 335 329 326 269 282 4 324 320 325 47 359 299 148 162 139 44 258 245 197 246 296 319 306 272 267 63 348 322 328 159
240 242 247 251 259 262 275 293 311 320 330 337 339 340 340 338 327 307 330 59 346 335 7 13 348 358 353 302 157 118 160 232 211 224 263 287 289 286 316 316 25 342 26 123 146
238 241 243 248 257 258 268 283 303 315 325 334 339 340 340 341 327 250 71 40 335 310 325 310 324 213 330 356 260 194 211 222 248 246 250 271 298 268 244 292 209 200 172 162 167
238 240 242 244 253 256 259 270 288 309 320 332 341 340 340 355 304 206 320 309 311 295 304 35 41 359 222 251 282 277 250 240 272 284 312 268 284 304 262 252 302 220 169 170 182
236 238 240 242 250 254 254 264 274 298 314 329 341 342 353 5 247 288 296 332 290 279 251 103 53 148 239 293 317 225 260 272 268 286 272 262 241 255 266 272 219 137 168 189 191
237 236 238 239 243 253 251 256 273 288 305 323 335 339 12 274 257 287 298 303 292 258 268 170 184 182 252 229 198 271 285 282 277 267 252 256 277 187 253 258 265 166 197 207 202
238 237 236 237 238 245 253 253 265 283 301 317 327 333 236 252 275 285 280 279 270 255 264 269 237 151 102 311 274 282 308 312 258 243 240 172 298 255 256 265 266 204 209 215 217
237 237 236 236 237 239 249 253 262 278 296 307 317 319 251 274 287 278 278 277 256 246 239 257 237 173 158 252 336 332 319 328 284 333 251 114 278 291 329 351 288 285 216 215 226
237 236 236 236 235 237 240 251 262 273 287 295 306 197 268 292 269 285 258 231 202 230 230 233 126 193 121 107 353 333 251 253 301 245 216 94 288 290 319 358 322 319 300 226 249
238 235 234 234 233 234 235 244 257 273 273 217 169 345 267 239 265 279 243 217 181 129 80 122 96 189 63 118 227 207 253 265 264 282 21 303 247 274 290 320 296 304 304 309 281
237 234 231 230 228 226 223 238 255 240 221 198 184 235 298 255 338 316 34 189 113 99 171 184 166 216 197 199 212 191 222 264 276 282 333 287 269 256 272 306 294 287 309 330 325
236 233 230 227 223 217 216 199 203 96 292 231 241 244 271 284 288 272 294 210 163 211 151 105 224 232 184 206 225 254 264 263 286 271 259 276 265 244 233 229 266 341 28 22 23
233 230 227 222 215 203 197 202 172 107 270 247 219 221 232 211 239 240 184 192 194 212 201 203 217 216 216 210 211 231 241 260 253 297 275 322 281 235 222 78 56 47 32 26 22
227 227 220 199 188 181 179 159 127 90 279 240 229 245 214 220 261 231 221 196 200 219 204 238 226 227 222 234 199 246 213 235 231 169 258 32 280 285 336 69 56 30 26 12 10
224 218 203 198 180 182 176 158 147 83 273 184 194 172 174 171 257 234 205 198 221 192 162 217 197 204 226 238 221 258 186 185 190 200 137 211 239 273 71 49 38 19 21 13 18
221 209 197 186 190 177 167 153 119 136 234 264 207 165 145 209 255 65 111 121 209 231 242 247 223 186 197 210 184 126 84 62 57 111 252 183 183 216 175 144 77 8 29 17 16
215 199 193 182 169 160 151 135 173 211 128 204 200 182 189 177 223 184 169 175 176 164 226 229 236 216 188 227 191 133 109 280 278 201 243 356 205 263 156 168 139 109 36 313 309
208 194 192 178 170 152 148 165 211 217 210 136 106 177 196 159 221 199 153 193 223 156 129 194 253 160 175 211 193 190 173 177 211 200 252 307 237 242 171 183 159 199 233 280 318
205 187 189 173 160 155 157 195 219 204 182 212 252 323 220 202 186 198 200 199 204 168 181 174 203 299 35 103 128 170 175 138 105 35 78 228 31 352 170 169 195 228 276 300 304
185 185 193 168 161 163 183 206 220 202 141 179 203 183 210 208 200 192 186 187 169 175 127 197 124 302 278 356 31 134 147 114 24 202 244 269 255 219 200 200 224 247 264 274 261
174 174 177 168 168 173 187 205 201 226 163 182 205 201 210 198 217 215 219 352 144 91 110 132 119 236 3 235 175 66 87 51 84 145 192 301 253 218 131 119 354 325 320 306 310
148 176 172 161 177 186 161 173 164 167 185 163 225 197 195 194 187 206 203 135 87 149 139 134 114 141 129 10 36 100 138 134 142 227 243 146 260 130 130 123 306 317 311 295 279
147 113 182 191 174 189 132 147 147 145 168 171 189 185 208 186 177 215 188 12 127 106 155 167 143 113 34 341 44 123 105 108 99 94 197 164 262 214 348 337 325 310 303 298 288
114 135 66 319 92 171 148 165 140 150 148 162 152 165 147 155 143 174 168 8 49 101 98 105 147 168 204 128 127 160 173 131 136 123 193 239 305 291 305 307 304 301 296 292 282
133 166 150 177 175 165 165 155 151 141 153 157 145 184 163 137 158 159 121 133 38 50 37 83 150 113 97 113 159 180 196 180 184 189 216 277 259 284 295 298 299 301 296 290 287
138 142 164 151 135 140 165 164 162 131 141 166 156 163 138 124 157 149 145 131 158 55 75 26 126 110 167 196 240 254 218 216 219 241 250 259 276 269 280 293 295 293 293 290 285
155 132 118 141 149 155 179 149 155 123 124 152 142 138 141 124 102 85 76 94 139 129 122 136 136 115 194 72 350 298 221 216 197 237 221 238 254 275 279 280 282 293 293 285 286